Погода в Уральске

Погода в Уральске : погода сейчас, прогноз погоды и архив. Всё, что Вы хотите узнать о погоде в Уральске!

Хотите узнать прогноз погоды в Уральске? Тогда Вам сюда: Погода в Уральске

Поиск расширенной информации на нашем сайте:

Другие новости

Новости СМИ2

Главная страница сайта

Новости сайта

02.10.2013

Напоминаем, что на нашем новом сайте вы можете получить высокодетализированные прогнозы погоды по пунктам России, СНГ и мира (включающие важные для авиации метеовеличины, такие как направление и скорость ветра, видимость, явления погоды, количество и форма облачности, нижняя и верхняя граница облачности), а также ознакомиться с разнообразными материалами по авиационной метеорологии и подборкой полезных ссылок на эту тему.

Сайт Метеоцентр.Азия посвящён разработке технологий оптимизации авиаметеорологического обслуживания, включая проектирование и перспективное создание нескольких автоматизированных авиаметеорологических систем:
- система выпуска высокодетальных прогностических карт явлений погоды для нижнего воздушного пространства по России и ближнему зарубежью;
- система верификации прогнозов TAF (выпускаемых синоптиками официальных АМСГ РФ и ближнего зарубежья) и AUTOTAF (выпускаемых сайтом Метеоцентр.Азия) - выявление ошибок, онлайн-сопоставление с фактической погодой METAR, автоматическое внесение коррективов в прогнозы при резком отклонении фактической погоды от прогноза, подсчёт оправдываемости прогнозов по элементам и в целом;
- система обработки, анализа и отображения авиаметеорологической информации для применения провайдерами метеорологической информации.

Рекомендуем: Подробности мрт матки цена у нас на сайте.

Погода в Уральске - сегодня

Время (UTC), дата Ветер
(°,м/с) 
Видим.   Явления Облачность Т
(°С)
Тd
(°С)
f(%) Тe
(°С)
Pmin
(гПа)
dP
(гПа)
Po
(мм)
O2
(г/м3)
Тmin Tmax R s Состояние
почвы
09 23.04.17 210 (ЮЗ) 10 км    6/0 средняя 
[Ac cuf]
+15.3 +5.4 52 +15  1011.7  0.4  756  287           
12 23.04.17 190 (Ю) 10 км    10/8 1000 м средняя 
[Cu med, cong|Ac As]
+15 +5.3 52 +14  1012.4  0.7  756  288           
15 23.04.17 180 (Ю) 10 км    10/10 600 м 
[Sc]
+13.4 +4.7 56 +13  1012.2  -0.3  756  290    +15.9       
18 23.04.17 140 (ЮВ) н/о  слаб. дождь  10/10 600 м 
[Ns]
+9.9 +7.8 87 +9  1012.4  0.2  756  293    +15.9       
21 23.04.17 050 (СВ) н/о  {дождь}  9/8 600 м 
[Sc]
+8.8 +8.4 97 +10  1011.5  -0.9  755  293           
00 24.04.17 040 (СВ) н/о  {дождь}  10/10 600 м 
[Sc]
+8.2 +7.6 96 +8  1008.9  -2.6  753  293           
03 24.04.17 080 (В) 10 км    10/10 600 м 
[Sc]
+9.7 +4.3 69 +8  1002.8  -6.1  749  291         
06 24.04.17 120 (ЮВ) 10 км  в посл. час ливневой дождь  10/10 600 м 
[Sc diur, vesp]
+11.6 +5.3 65 +11  999.7  -3  747  288  +8.1       
09 24.04.17 130 (ЮВ) 10 км  {ливн. осадки}  10/8 600 м средняя 
[Sc|Ac trans]
+14.1 +7 62 +13  997.3  -2.4  745  284           
12 24.04.17 170 (Ю) 10 км  {ливн. осадки}  8/8 600 м 
[Cu med, cong]
+12.3 +7.8 74 +11  998.7  1.4  746  286           
15 24.04.17 190 (Ю) 7{16}  10 км    10/10 600 м кучево-дожд. 
[Cb cap]
+9.6 +5.4 75 +8  1001.5  2.7  748  290    +14.4  0.0     
18 24.04.17 190 (Ю) н/о    10/10 600 м 
[Sc]
+8.4 +4.3 75 +6  1005  3.5  750  293    +14.4  0.0     
21 24.04.17 220 (ЮЗ) н/о    10/10 600 м кучево-дожд. 
[Cb cap]
+5.8 +2.4 79 +4  1008.9  3.8  753  297           
00 25.04.17 240 (ЮЗ) н/о    5/0 средняя 
[Ac und]
+2.8 +1.2 89 +2  1012.2  3.3  756  301           
03 25.04.17 240 (ЮЗ) 10 км    3/0 средняя 
[Ac lent]
+2.3 +0.4 87 +3  1015.2  2.9  758  303           
06 25.04.17 200 (Ю) 10 км    8/0 средняя 
[Ac lent]
+8 +2.2 67 +9  1017  1.9  759  297  +2         
09 25.04.17 170 (Ю) 10 км    8/4 1000 м средняя 
[Cu med, cong|Ac lent]
+12.2 +1.6 48 +12  1017.6  0.7  760  293           
12 25.04.17 160 (Ю) 10 км    8/8 1000 м 
[Cu hum]
+11.3 +1.8 52 +11  1017.3  -0.3  760  294           
15 25.04.17 220 (ЮЗ) 10 км    10/10 600 м 
[Sc]
+8.9 +3.5 69 +8  1018.2  0.8  760  296    +12.5       
18 25.04.17 230 (ЮЗ) н/о  слаб. ливневой дождь  10/10 600 м кучево-дожд. 
[Cb calv]
+6.5 +5.4 93 +6  1019.6  1.4  761  299    +12.5       
21 25.04.17 260 (З) н/о  {ливн. осадки}  10/10 600 м кучево-дожд. 
[Cb calv]
+6.2 +4.8 91 +5  1020.4  0.8  762  299           
00 26.04.17 230 (ЮЗ) н/о  {ливн. осадки}  6/0 средняя 
[Ac lent]
+4.7 +3.2 90 +4  1021.7  1.3  763  302           
03 26.04.17 260 (З) 10 км    3/0 средняя, верхняя 
[Ac lent|Ci fib]
+3.2 +1.6 89 +1  1023.9  2.1  764  304         
06 26.04.17 320 (СЗ) 10 км    4/0 средняя 
[Ac trans]
+9.3 +3.2 66 +8  1025.5  1.7  766  298  +2.6       
09 26.04.17 260 (З) 10 км    8/8 600 м 
[Cu med, cong]
+12.5 +2.6 51 +12  1026.8  1.4  767  295           
Время (UTC), дата Ветер
(°,м/с) 
Видим.   Явления Облачность Т
(°С)
Тd
(°С)
f(%) Тe
(°С)
Pmin
(гПа)
dP
(гПа)
Po
(мм)
O2
(г/м3)
Тmin Tmax R s Состояние
почвы

Для получения пояснительной информации подведите курсор к названию столбца.

ПОГОДА в Уральске - архив

Всё, что Вы хотите узнать о погоде в Уральске - удобно и подробно!

Выберите нужную дату (начиная с 1 января 2015* года) и нажмите кнопку "Найти".
Будут отображены архивные сводки погоды по пункту Уральск, начиная с указанной даты.


Отображать данные в формате CSV (для использования в таблицах Excel)


Внимание! Наш архив погоды предназначен исключительно для личного некоммерческого использования в познавательных целях. Если Вам необходимы официальные справки о состоянии погоды (для производственных, юридических, коммерческих и т.п. целей), обращайтесь в органы Росгидромета.

*Примечание: данная дата относится к архиву по метеостанциям СССР (Россия, СНГ, Балтия).
Архив по метеостанциям Зарубежной Европы и Азии (кроме Китая) хранится 10 дней, по другим регионам земного шара (Китай, Африка, Америка, Австралия, Океания) - 1 день.

Уральск - район местоположения метеостанции


Название, широта, долгота, высота метеостанции:
Уральск (город) 51.2°ш. 51.3°д. 37 м над ур. моря [Казахстан]

Дополнительная информация

В oтличие oт бoльшинства пoгoдных сайтoв мы публикуем пoдрoбную метеoинфoрмацию в детальнoм прoфессиoнальнoм фoрмате.

Характеристики температуры и влажнoсти вoздуха измеряются на высoте 2 м в тени вдали oт зданий и деревьев.
Скoрoсть ветра измеряется на высoте 10 м (на урoвне рoста челoвека скoрoсть ветра ниже в 1.5-2 раза). Если метеoстанция нахoдится в гoрoде или в лесу, тo скoрoсть ветра занижена на 2-4 м/с пo сравнению с oткрытым местoм. Скoрoсть ветра над акватoриями крупных рек и oзёр, а также на вершинах хoлмoв на 2-5 м/с выше, чем в oбычных услoвиях.
Атмoсфернoе давление в разных тoчках местнoсти мoжет значительнo oтличаться oт давления на метеoстанции, в зависимoсти oт услoвий рельефа (при пoдъёме на 10 м давление пoнижается примернo на 1 мм рт.ст.).